TimeCDT,TemperatureF,Dew PointF,Humidity,Sea Level PressureIn,VisibilityMPH,Wind Direction,Wind SpeedMPH,Gust SpeedMPH,PrecipitationIn,Events,Conditions,WindDirDegrees,DateUTC
12:53 AM,53.1,34.0,48,29.98,10.0,NW,13.8,-,N/A,,Clear,320,2012-11-01 05:53:00
1:53 AM,50.0,35.1,57,29.98,10.0,NNW,11.5,-,N/A,,Clear,330,2012-11-01 06:53:00
2:53 AM,50.0,36.0,59,29.99,10.0,NNW,10.4,-,N/A,,Clear,340,2012-11-01 07:53:00
3:53 AM,48.0,36.0,63,29.99,10.0,North,10.4,-,N/A,,Clear,350,2012-11-01 08:53:00
4:53 AM,45.0,36.0,71,29.98,10.0,NNW,3.5,-,N/A,,Clear,330,2012-11-01 09:53:00
5:53 AM,44.1,36.0,73,29.99,10.0,NNW,11.5,-,N/A,,Clear,340,2012-11-01 10:53:00
6:53 AM,41.0,36.0,82,30.04,10.0,NNW,8.1,-,N/A,,Clear,340,2012-11-01 11:53:00
7:53 AM,39.0,36.0,89,30.05,10.0,NNW,5.8,-,N/A,,Clear,340,2012-11-01 12:53:00
8:51 AM,37.4,35.6,93,30.04,2.0,NNW,15.0,-,N/A,,Partly Cloudy,340,2012-11-01 13:51:00
8:53 AM,37.0,36.0,96,30.08,1.0,North,12.7,-,N/A,,Mist,350,2012-11-01 13:53:00
9:01 AM,37.4,37.4,100,30.04,0.5,North,5.8,-,N/A,Fog,Fog,350,2012-11-01 14:01:00
9:53 AM,39.0,39.0,100,30.09,0.8,North,9.2,-,N/A,,Overcast,10,2012-11-01 14:53:00
10:25 AM,39.2,39.2,100,30.06,1.2,North,9.2,-,N/A,,Overcast,10,2012-11-01 15:25:00
10:48 AM,41.0,39.2,93,30.05,3.0,North,6.9,-,N/A,,Overcast,10,2012-11-01 15:48:00
10:53 AM,39.9,39.0,97,30.08,2.0,North,9.2,-,N/A,,Overcast,360,2012-11-01 15:53:00
11:00 AM,41.0,39.2,93,30.05,1.5,North,8.1,-,N/A,,Overcast,360,2012-11-01 16:00:00
11:05 AM,41.0,39.2,93,30.05,3.0,North,6.9,-,N/A,,Overcast,360,2012-11-01 16:05:00
11:53 AM,44.1,39.9,85,30.05,7.0,NE,5.8,-,N/A,,Overcast,50,2012-11-01 16:53:00
12:13 PM,46.4,39.2,76,30.04,9.0,NE,4.6,-,N/A,,Mostly Cloudy,40,2012-11-01 17:13:00
12:26 PM,46.4,39.2,76,30.03,10.0,NE,3.5,-,N/A,,Partly Cloudy,50,2012-11-01 17:26:00
12:53 PM,50.0,39.9,68,30.03,10.0,Calm,Calm,-,N/A,,Clear,0,2012-11-01 17:53:00
1:53 PM,53.6,39.2,58,29.99,10.0,East,6.9,-,N/A,,Clear,100,2012-11-01 18:53:00
2:53 PM,55.9,41.0,57,29.95,10.0,ESE,5.8,-,N/A,,Clear,120,2012-11-01 19:53:00
3:53 PM,55.9,41.0,57,29.94,10.0,East,8.1,-,N/A,,Clear,90,2012-11-01 20:53:00
4:53 PM,54.0,41.0,62,29.94,8.0,ESE,9.2,-,N/A,,Clear,120,2012-11-01 21:53:00
5:53 PM,52.0,41.0,66,29.94,8.0,ESE,8.1,-,N/A,,Clear,120,2012-11-01 22:53:00
6:53 PM,48.0,39.0,71,29.94,9.0,ESE,6.9,-,N/A,,Clear,110,2012-11-01 23:53:00
7:53 PM,46.0,37.9,73,29.94,9.0,ESE,6.9,-,N/A,,Clear,110,2012-11-02 00:53:00
8:53 PM,45.0,37.9,76,29.94,8.0,SE,8.1,-,N/A,,Clear,130,2012-11-02 01:53:00
9:53 PM,42.1,37.0,82,29.93,7.0,SE,6.9,-,N/A,,Clear,130,2012-11-02 02:53:00
10:53 PM,39.0,36.0,89,29.94,6.0,SE,4.6,-,N/A,,Clear,130,2012-11-02 03:53:00
11:53 PM,39.0,37.0,93,29.93,5.0,SE,4.6,-,N/A,,Clear,140,2012-11-02 04:53:00